User: anonymous   Login
Location: Oshawa
(43.9000°N, 78.8670°W)
Time: 05:26:37
(UTC-05:00)
Language:

Explorer 7 - Orbit

View from above orbital plane
View from above orbital plane
View from above satellite
View from above satellite

Ground track
Ground track

The orbit data is extracted from the following two-line orbital elements,

1 00022U 59009A   17023.19335810  .00000696  00000-0  76294-4 0  9993
2 00022  50.2843 161.4098 0142767 200.0973 159.4317 14.93919998 39672
Epoch (UTC): 23 January 2017 04:38:26
Eccentricity: 0.0142767
inclination: 50.2843°
perigee height: 486 km
apogee height: 685 km
right ascension of ascending node: 161.4098°
argument of perigee: 200.0973°
revolutions per day: 14.93919998
mean anomaly at epoch: 159.4317°
orbit number at epoch: 3967

The dashed part of the orbit path shows where the satellite is in the earth's shadow,  

DLR